[[{"header":{"parameterUnit":"m.s-1","parameterCategory":1,"la1":30.2991,"la2":30.254,"lo1":-89.0895,"lo2":-89.0444,"dy":0.0017,"dx":0.0017,"nx":28,"ny":28,"refTime":"2025-06-01T21:00:00:Z","depth":0,"parameterNumber":2,"parameterNumberName":"U-component_of_WINDS"},"data":[0,0,0,0,0,0,0,0,0,0,0,0,0,0,0,0,0,0,0,0,0,0,0,0,0,0,0,0,0,0,0,0,0,0,0,0,0,0,0,0,0,0,0,0,0,0,0,0,0,0,0,0,0,0,0,0,0,0,-5.8769,-5.877,0,-5.8866,-5.8867,-5.8868,-5.8837,-5.8835,-5.8833,-5.8831,-5.8927,-5.8931,-5.8936,0,0,0,0,0,0,0,0,0,0,0,0,0,-5.8556,-5.856,-5.8769,-5.877,-5.8772,-5.8866,-5.8867,-5.8869,-5.8837,-5.8835,-5.8832,-5.883,-5.8925,-5.8931,-5.8936,0,0,0,0,0,0,0,0,0,0,0,0,0,-5.865,-5.8561,-5.8769,-5.8768,-5.8768,-5.8866,-5.8867,-5.8869,-5.8838,-5.8835,-5.8832,-5.8829,-5.8924,-5.893,-5.8937,-5.904,0,0,-5.8957,-5.896,0,0,0,0,0,0,0,0,-5.8645,-5.8658,-5.8767,-5.8768,-5.8769,-5.8836,-5.8827,-5.8926,-5.8839,-5.8811,-5.8831,-5.8827,-5.8899,-5.8908,-5.8932,-5.9045,-5.9049,-5.8958,-5.8962,-5.8965,-5.8967,0,0,0,0,0,0,0,-5.8638,-5.8653,-5.8807,-5.8768,-5.877,-5.8761,-5.8771,-5.8846,-5.8871,-5.8814,-5.8812,-5.8824,-5.8899,-5.8926,-5.8935,-5.905,-5.8958,-5.8964,-5.8968,-5.8971,-5.9254,-5.9257,0,0,0,0,0,0,-5.8631,-5.8648,-5.8804,-5.881,-5.8698,-5.8768,-5.8779,-5.8818,-5.887,-5.8876,-5.8826,-5.8822,-5.8916,-5.8927,-5.8938,-5.9062,-5.8965,-5.8971,-5.8975,-5.925,-5.9254,-5.9258,0,0,0,0,0,0,-5.8627,-5.8645,-5.88,-5.8729,-5.8748,-5.8775,-5.8819,-5.8821,-5.8848,-5.888,-5.8884,-5.8849,-5.8914,-5.8928,-5.9016,-5.9065,-5.8974,-5.898,-5.9246,-5.9251,-5.9256,-5.9313,0,0,0,0,0,0,-5.8621,-5.8644,-5.8684,-5.873,-5.8752,-5.8877,-5.8822,-5.8825,-5.886,-5.8856,-5.8903,-5.8907,-5.8913,-5.9006,-5.9022,-5.9073,-5.8986,-5.9242,-5.9248,-5.9255,-5.9306,-5.9319,-5.933,0,0,0,0,0,-5.8613,-5.8695,-5.8686,-5.8705,-5.8802,-5.888,-5.8892,-5.8898,-5.8864,-5.8904,-5.8925,-5.8906,-5.9058,-5.9015,-5.9033,-5.9087,-5.9238,-5.9246,-5.9254,-5.9301,-5.9317,-5.933,0,0,0,0,0,0,-5.8652,-5.8701,-5.8691,-5.8791,-5.8832,-5.8875,-5.8925,-5.8914,-5.8964,-5.8957,-5.8961,-5.8972,-5.9062,-5.9083,-5.9035,-5.919,-5.9143,-5.9155,-5.9172,-5.9188,-5.9199,-5.9191,-5.8991,0,0,0,0,0,-5.8672,-5.8732,-5.8771,-5.8855,-5.8876,-5.8898,-5.8931,-5.8933,-5.8975,-5.8991,-5.9018,-5.9059,-5.9116,-5.9153,-5.9207,-5.931,-5.932,-5.9356,-5.9368,-5.9378,-5.9387,-5.9443,-5.946,-5.9284,-5.9284,-5.9284,0,0,-5.8714,-5.8748,-5.8786,-5.8864,-5.8896,-5.8957,-5.8912,-5.8978,-5.9024,-5.9001,-5.9085,-5.9107,-5.9153,-5.9248,-5.9292,-5.9269,-5.9439,-5.9388,-5.9395,-5.9399,-5.9453,-5.947,-5.9485,-5.9289,-5.9288,-5.9287,0,0,-5.8822,-5.8854,-5.8928,-5.8961,-5.9011,-5.9025,-5.9043,-5.9088,-5.9102,-5.9187,-5.9172,-5.9226,-5.9324,-5.9357,-5.9387,-5.9511,-5.9495,-5.9529,-5.9589,-5.9644,-5.9658,-5.967,-5.9714,-5.9729,-5.9538,-5.9539,-5.9539,0,-5.8867,-5.8959,-5.8966,-5.9035,-5.907,-5.9054,-5.9129,-5.9161,-5.9225,-5.9249,-5.9223,-5.9347,-5.9377,-5.948,-5.9511,-5.9536,-5.9556,-5.9522,-5.9656,-5.9668,-5.968,-5.9721,-5.9738,-5.9542,-5.9542,-5.9542,-5.9541,0,-5.9013,-5.9077,-5.9131,-5.9195,-5.9236,-5.9307,-5.9324,-5.9365,-5.9364,-5.938,-5.9468,-5.9504,-5.9565,-5.959,-5.9588,-5.9694,-5.9678,-5.9655,-5.9607,-5.97,-5.9739,-5.9755,-5.9548,-5.9546,-5.9545,-5.9544,0,0,-5.9144,-5.9214,-5.9233,-5.9262,-5.9317,-5.9367,-5.9438,-5.95,-5.9534,-5.958,-5.9639,-5.9724,-5.9703,-5.9737,-5.9739,-5.9788,-5.9883,-5.9758,-5.9759,-5.9779,-6.0001,-6.0018,-6.0036,-5.9874,-5.9877,-5.988,-5.9997,0,-5.9255,-5.938,-5.939,-5.9502,-5.9562,-5.955,-5.9612,-5.9652,-5.967,-5.9723,-5.9743,-5.9803,-5.9771,-5.9792,-5.9839,-5.9861,-5.9927,-5.9853,-5.9928,-5.993,-5.9915,-6.0056,-6.0074,-6.0182,-6.0012,-6.0015,-6.0017,0,-5.9401,-5.9453,-5.9572,-5.962,-5.9645,-5.97,-5.9758,-5.981,-5.9856,-5.9866,-5.9905,-5.9902,-5.9974,-5.9926,-6.0026,-5.9976,-6.0007,-6.0023,-6.0027,-6.0033,-5.9978,-6.0064,-6.0217,-6.0233,-6.0041,-6.0039,-6.0037,0,-5.9484,-5.9583,-5.9668,-5.9693,-5.9752,-5.9791,-5.9817,-5.986,-5.9897,-5.9948,-5.9972,-6.003,-6.0062,-6.0107,-6.0119,-6.0083,-6.0219,-6.0172,-6.0228,-6.0228,-6.0255,-6.0253,-6.0414,-6.0279,-6.0279,-6.0278,-6.0278,0,-5.9606,-5.9678,-5.9706,-5.9757,-5.9839,-5.985,-5.993,-5.9954,-5.9993,-6.0048,-6.0042,-6.0094,-6.0108,-6.0163,-6.0174,-6.0255,-6.0269,-6.0279,-6.028,-6.0278,-6.0277,-6.0297,-6.0289,-6.0283,-6.0282,-6.0281,-6.028,0,-5.971,-5.9732,-5.9823,-5.9872,-5.9886,-5.9944,-5.9985,-6.0035,-6.0054,-6.0124,-6.0141,-6.017,-6.0235,-6.0253,-6.033,-6.0337,-6.0432,-6.0427,-6.0416,-6.0416,-6.0471,-6.0465,-6.0649,-6.0674,-6.0524,-6.0525,-6.0526,0,-5.9786,-5.9842,-5.9898,-5.9935,-5.9964,-6.0024,-6.0062,-6.0076,-6.0116,-6.0174,-6.0217,-6.0281,-6.0333,-6.0437,-6.0464,-6.0523,-6.0519,-6.058,-6.0527,-6.0524,-6.0518,-6.0514,-6.052,-6.0588,-6.059,-6.0591,-6.0592,0,-5.9917,-5.9926,-5.9982,-6.0042,-6.0089,-6.0137,-6.0183,-6.0214,-6.0234,-6.028,-6.0346,-6.0387,-6.0467,-6.053,-6.0591,-6.0617,-6.0608,-6.0609,-6.0625,-6.0623,-6.0614,-6.0618,-6.0441,-6.0604,-6.0603,-6.0602,-6.0601,-6.0601,-6.0009,-6.0058,-6.0106,-6.0169,-6.0206,-6.0249,-6.0299,-6.0325,-6.0381,-6.0448,-6.0453,-6.0525,-6.0571,-6.0652,-6.0682,-6.0738,-6.072,-6.0743,-6.0749,-6.0754,-6.0758,-6.0607,-6.0749,-6.0749,-6.0749,-6.0748,-6.0748,0,-6.0139,-6.017,-6.0228,-6.0293,-6.0343,-6.0333,-6.0384,-6.0426,-6.049,-6.0534,-6.0586,-6.0664,-6.0726,-6.076,-6.0822,-6.0861,-6.0858,-6.0876,-6.0873,-6.0879,-6.0771,-6.0751,-6.0877,-6.0877,-6.0877,-6.0877,-6.0877,-6.0877,-6.0212,-6.0296,-6.031,-6.0412,-6.0442,-6.0514,-6.0544,-6.0584,-6.062,-6.0707,-6.0759,-6.0782,-6.0822,-6.0887,-6.0944,-6.0952,-6.0975,-6.0995,-6.1001,-6.09,-6.0886,-6.0874,-6.0854,-6.1,-6.1001,-6.1104,-6.1104,-6.1105]},{"header":{"parameterUnit":"m.s-1","parameterCategory":1,"la1":30.2991,"la2":30.254,"lo1":-89.0895,"lo2":-89.0444,"dy":0.0017,"dx":0.0017,"nx":28,"ny":28,"refTime":"2025-06-01T21:00:00:Z","depth":0,"parameterNumber":3,"parameterNumberName":"V-component_of_WINDS"},"data":[0,0,0,0,0,0,0,0,0,0,0,0,0,0,0,0,0,0,0,0,0,0,0,0,0,0,0,0,0,0,0,0,0,0,0,0,0,0,0,0,0,0,0,0,0,0,0,0,0,0,0,0,0,0,0,0,0,0,2.7183,2.7183,0,2.7187,2.7187,2.7187,2.7212,2.7212,2.7213,2.7213,2.7212,2.7211,2.721,0,0,0,0,0,0,0,0,0,0,0,0,0,2.7195,2.7194,2.7183,2.7183,2.7183,2.7187,2.7187,2.7187,2.7211,2.7212,2.7213,2.7214,2.7212,2.7211,2.721,0,0,0,0,0,0,0,0,0,0,0,0,0,2.7193,2.7194,2.7183,2.7196,2.7197,2.7187,2.7187,2.7187,2.7211,2.7212,2.7213,2.7214,2.7212,2.7211,2.721,2.7186,0,0,2.7207,2.7207,0,0,0,0,0,0,0,0,2.7193,2.7193,2.7194,2.7195,2.7197,2.72,2.719,2.7186,2.7211,2.7206,2.7213,2.7215,2.7207,2.7206,2.7205,2.7185,2.7185,2.7207,2.7207,2.7206,2.7206,0,0,0,0,0,0,0,2.7193,2.7193,2.7184,2.7194,2.7196,2.7201,2.7202,2.719,2.7201,2.7206,2.7208,2.7209,2.7207,2.7205,2.7205,2.7185,2.7207,2.7206,2.7206,2.7205,2.7147,2.7146,0,0,0,0,0,0,2.7192,2.7192,2.7184,2.7185,2.7197,2.72,2.7201,2.7198,2.7201,2.7202,2.7208,2.721,2.7207,2.7206,2.7205,2.7176,2.7206,2.7205,2.7205,2.7148,2.7147,2.7146,0,0,0,0,0,0,2.7192,2.7191,2.7184,2.7189,2.7189,2.7199,2.7195,2.7197,2.7195,2.7202,2.7204,2.7204,2.7207,2.7206,2.7191,2.7177,2.7205,2.7204,2.715,2.7148,2.7147,2.7119,0,0,0,0,0,0,2.7192,2.7191,2.7182,2.7189,2.7188,2.7171,2.7194,2.7197,2.7194,2.7197,2.7199,2.72,2.7208,2.7192,2.719,2.7176,2.7203,2.7151,2.7149,2.7147,2.7121,2.7117,2.7113,0,0,0,0,0,2.7193,2.7173,2.7182,2.7181,2.7178,2.717,2.717,2.7181,2.7193,2.7184,2.7189,2.72,2.7179,2.719,2.7188,2.7173,2.7152,2.7149,2.7147,2.7123,2.7118,2.7113,0,0,0,0,0,0,2.7162,2.7174,2.7184,2.7166,2.7167,2.7175,2.7163,2.7175,2.7171,2.7173,2.7185,2.7186,2.7168,2.717,2.7182,2.715,2.7167,2.7165,2.715,2.7145,2.7141,2.714,2.7203,0,0,0,0,0,2.7154,2.7148,2.7158,2.7142,2.7142,2.7153,2.715,2.7158,2.7159,2.7159,2.7163,2.7162,2.7156,2.715,2.7145,2.7123,2.7123,2.7112,2.7108,2.7104,2.7101,2.709,2.7085,2.7139,2.7139,2.7139,0,0,2.7136,2.7142,2.7137,2.7136,2.7138,2.713,2.7153,2.7143,2.7138,2.7157,2.7144,2.7146,2.7146,2.7128,2.712,2.7128,2.7087,2.7101,2.7099,2.7097,2.7087,2.7082,2.7077,2.7137,2.7138,2.7138,0,0,2.7099,2.7103,2.709,2.7092,2.7096,2.7103,2.71,2.7107,2.711,2.7097,2.7112,2.7105,2.7093,2.7093,2.7091,2.7057,2.7067,2.7055,2.7032,2.7021,2.7017,2.7013,2.7001,2.6996,2.7052,2.7052,2.7052,0,2.7075,2.7066,2.7081,2.7072,2.7071,2.7091,2.7077,2.7078,2.7079,2.7077,2.7088,2.7075,2.7076,2.7058,2.705,2.7048,2.7044,2.7053,2.7017,2.7013,2.701,2.6998,2.6993,2.705,2.705,2.705,2.7051,0,2.7036,2.703,2.7018,2.7021,2.7019,2.7007,2.702,2.7016,2.7026,2.7032,2.7019,2.7022,2.7018,2.7015,2.7023,2.6998,2.7003,2.7015,2.7032,2.7003,2.6992,2.6987,2.7048,2.7048,2.7049,2.7049,0,0,2.6977,2.6991,2.6986,2.6988,2.6995,2.699,2.6979,2.6977,2.6973,2.6974,2.6965,2.6956,2.6968,2.6966,2.6975,2.6965,2.6938,2.6978,2.6979,2.697,2.691,2.69,2.6895,2.6946,2.6945,2.6944,2.691,0,2.6941,2.6925,2.694,2.692,2.6915,2.6935,2.6926,2.6929,2.6935,2.693,2.6937,2.693,2.6947,2.6946,2.6938,2.6943,2.6926,2.6946,2.6936,2.6935,2.6934,2.6889,2.6878,2.6845,2.6906,2.6905,2.6905,0,2.6896,2.6897,2.6878,2.6887,2.6885,2.6877,2.6877,2.6873,2.6876,2.6882,2.6881,2.6893,2.6883,2.6902,2.6887,2.69,2.6898,2.69,2.6899,2.6897,2.6917,2.6884,2.6835,2.683,2.6898,2.6898,2.6899,0,2.6854,2.685,2.6839,2.684,2.6851,2.6845,2.6849,2.6854,2.6852,2.6852,2.6851,2.6849,2.6847,2.6845,2.6856,2.6869,2.684,2.6859,2.6843,2.6843,2.6834,2.6834,2.6782,2.6835,2.6835,2.6835,2.6835,0,2.6811,2.6798,2.682,2.6813,2.6799,2.6817,2.6802,2.6808,2.6813,2.6807,2.6824,2.6817,2.6833,2.6828,2.6836,2.6823,2.6822,2.6825,2.6827,2.6823,2.6822,2.682,2.6822,2.6834,2.6834,2.6834,2.6834,0,2.676,2.6775,2.6764,2.6777,2.6779,2.6769,2.6779,2.6772,2.6781,2.6773,2.6772,2.6785,2.678,2.6791,2.6787,2.6793,2.6774,2.678,2.6773,2.6774,2.6757,2.6758,2.67,2.6694,2.6752,2.6751,2.6751,0,2.6731,2.6722,2.6735,2.6733,2.6737,2.6733,2.6732,2.6749,2.6748,2.6753,2.6745,2.6742,2.674,2.6731,2.674,2.6737,2.6742,2.6723,2.6742,2.6738,2.6741,2.6741,2.674,2.6718,2.6717,2.6716,2.6716,0,2.6678,2.6686,2.6685,2.6687,2.6686,2.6688,2.6691,2.6688,2.6707,2.6704,2.67,2.6699,2.6697,2.6693,2.6693,2.6696,2.6708,2.671,2.6706,2.67,2.6696,2.6698,2.6761,2.6711,2.6711,2.6712,2.6712,2.6712,2.6636,2.663,2.6638,2.6637,2.6642,2.6645,2.6639,2.6649,2.6647,2.6647,2.6657,2.6652,2.6657,2.6658,2.666,2.6655,2.6664,2.6658,2.6656,2.6654,2.6651,2.6699,2.6655,2.6655,2.6656,2.6656,2.6656,0,2.6583,2.659,2.6589,2.6594,2.6593,2.6609,2.6613,2.6611,2.6606,2.6611,2.661,2.6606,2.6603,2.6613,2.6611,2.6605,2.6611,2.6604,2.6604,2.6604,2.6644,2.6647,2.6599,2.6599,2.6599,2.66,2.66,2.66,2.6555,2.6545,2.6555,2.6547,2.6554,2.655,2.6551,2.6554,2.6558,2.6554,2.6552,2.656,2.6566,2.6566,2.6564,2.6567,2.6564,2.6555,2.656,2.6596,2.6601,2.6606,2.661,2.6555,2.6555,2.6521,2.652,2.652]}]]